| time (UTC) | temp F | wind direction | speed knots | gust knots | rain 1hr in | rain 24hr in | rain mn in | humidity % | barometer mb |
| 20260504130509 | 53 | 184 | 2.6 | 6.1 | 0.00 | 0.00 | 0.00 | 47 | 1009.5 |
| 20260504110506 | 48 | 239 | 2.6 | 5.2 | 0.00 | 0.00 | 0.00 | 54 | 1009.8 |
| 20260504100507 | 47 | 180 | 2.6 | 4.3 | 0.00 | 0.00 | 0.00 | 56 | 1009.5 |
| 20260504082006 | 47 | 129 | 2.6 | 2.6 | 0.00 | 0.00 | 0.00 | 62 | 1009.8 |
| 20260504081505 | 47 | 177 | 3.5 | 3.5 | 0.00 | 0.00 | 0.00 | 63 | 1009.8 |
| 20260504081005 | 46 | 138 | 2.6 | 3.5 | 0.00 | 0.00 | 0.00 | 64 | 1009.8 |
| 20260504080509 | 46 | 279 | 1.7 | 1.7 | 0.00 | 0.00 | 0.00 | 63 | 1009.8 |
| 20260504050505 | 45 | 26 | 1.7 | 1.7 | 0.00 | 0.00 | 0.00 | 64 | 1010.5 |
| 20260504050006 | 45 | 71 | 0.9 | 2.6 | 0.00 | 0.00 | 0.00 | 63 | 1010.5 |
| 20260504045505 | 45 | 68 | 1.7 | 1.7 | 0.00 | 0.00 | 0.00 | 64 | 1010.8 |
| 20260504045006 | 45 | 72 | 0.9 | 1.7 | 0.00 | 0.00 | 0.00 | 62 | 1010.8 |
| 20260504044506 | 45 | 55 | 0.0 | 1.7 | 0.00 | 0.00 | 0.00 | 62 | 1010.5 |
| 20260504044006 | 45 | 45 | 2.6 | 3.5 | 0.00 | 0.00 | 0.00 | 61 | 1010.5 |
| 20260504043506 | 45 | 39 | 2.6 | 3.5 | 0.00 | 0.00 | 0.00 | 60 | 1010.5 |
| 20260504043005 | 45 | 57 | 2.6 | 2.6 | 0.00 | 0.00 | 0.00 | 58 | 1010.8 |
| 20260504042506 | 45 | 44 | 1.7 | 1.7 | 0.00 | 0.00 | 0.00 | 58 | 1010.8 |
| 20260504042006 | 45 | 3 | 0.9 | 2.6 | 0.00 | 0.00 | 0.00 | 57 | 1010.8 |
| 20260504041506 | 45 | 49 | 3.5 | 3.5 | 0.00 | 0.00 | 0.00 | 55 | 1011.2 |
| 20260504041006 | 45 | 47 | 2.6 | 2.6 | 0.00 | 0.00 | 0.00 | 55 | 1010.8 |
| 20260504040506 | 45 | 51 | 3.5 | 3.5 | 0.00 | 0.00 | 0.00 | 54 | 1010.5 |
| 20260504040005 | 45 | 58 | 2.6 | 3.5 | 0.00 | 0.00 | 0.00 | 53 | 1010.5 |
| 20260504035505 | 44 | 26 | 1.7 | 2.6 | 0.00 | 0.00 | 0.00 | 53 | 1010.8 |
| 20260504035005 | 44 | 50 | 2.6 | 3.5 | 0.00 | 0.00 | 0.00 | 51 | 1010.8 |
| 20260504034506 | 44 | 35 | 2.6 | 3.5 | 0.00 | 0.00 | 0.00 | 53 | 1010.5 |
| 20260504034006 | 44 | 59 | 2.6 | 3.5 | 0.00 | 0.00 | 0.00 | 52 | 1010.5 |
| 20260504033506 | 44 | 42 | 2.6 | 2.6 | 0.00 | 0.00 | 0.00 | 50 | 1010.5 |
| 20260504033005 | 44 | 50 | 2.6 | 2.6 | 0.00 | 0.00 | 0.00 | 54 | 1010.8 |
| 20260504032505 | 44 | 44 | 2.6 | 3.5 | 0.00 | 0.00 | 0.00 | 54 | 1010.5 |
| 20260504032006 | 44 | 37 | 4.3 | 4.3 | 0.00 | 0.00 | 0.00 | 56 | 1010.5 |
| 20260504031505 | 43 | 58 | 2.6 | 2.6 | 0.00 | 0.00 | 0.00 | 53 | 1010.5 |
| 20260504031005 | 43 | 32 | 2.6 | 3.5 | 0.00 | 0.00 | 0.00 | 55 | 1010.2 |
| 20260504030506 | 43 | 45 | 1.7 | 2.6 | 0.00 | 0.00 | 0.00 | 51 | 1010.2 |
| 20260504030006 | 43 | 45 | 1.7 | 2.6 | 0.00 | 0.00 | 0.00 | 51 | 1010.2 |
| 20260504025505 | 43 | 35 | 3.5 | 4.3 | 0.00 | 0.00 | 0.00 | 52 | 1010.2 |
| 20260504025005 | 42 | 42 | 3.5 | 4.3 | 0.00 | 0.00 | 0.00 | 56 | 1010.2 |
| 20260504024505 | 43 | 57 | 2.6 | 2.6 | 0.00 | 0.00 | 0.00 | 58 | 1010.5 |
| 20260504024005 | 43 | 52 | 3.5 | 3.5 | 0.00 | 0.00 | 0.00 | 53 | 1010.5 |
| 20260504023506 | 43 | 52 | 2.6 | 2.6 | 0.00 | 0.00 | 0.00 | 54 | 1010.2 |
| 20260504023005 | 43 | 49 | 2.6 | 2.6 | 0.00 | 0.00 | 0.00 | 54 | 1010.2 |
| 20260504022505 | 42 | 47 | 2.6 | 2.6 | 0.00 | 0.00 | 0.00 | 49 | 1010.5 |
| 20260504022005 | 42 | 48 | 2.6 | 3.5 | 0.00 | 0.00 | 0.00 | 54 | 1010.5 |
| 20260504021505 | 42 | 53 | 3.5 | 3.5 | 0.00 | 0.00 | 0.00 | 52 | 1010.5 |
| 20260504021005 | 42 | 51 | 2.6 | 3.5 | 0.00 | 0.00 | 0.00 | 54 | 1010.5 |
| 20260504020506 | 42 | 46 | 3.5 | 3.5 | 0.00 | 0.00 | 0.00 | 51 | 1010.5 |
| 20260504020005 | 42 | 46 | 3.5 | 3.5 | 0.00 | 0.00 | 0.00 | 51 | 1010.5 |
| 20260504015505 | 42 | 46 | 3.5 | 3.5 | 0.00 | 0.00 | 0.00 | 51 | 1010.8 |
| 20260504015006 | 42 | 41 | 3.5 | 3.5 | 0.00 | 0.00 | 0.00 | 51 | 1010.5 |
| 20260504014506 | 42 | 41 | 3.5 | 3.5 | 0.00 | 0.00 | 0.00 | 51 | 1010.5 |
| 20260504014006 | 42 | 41 | 3.5 | 3.5 | 0.00 | 0.00 | 0.00 | 51 | 1010.2 |
| 20260504013505 | 42 | 48 | 3.5 | 4.3 | 0.00 | 0.00 | 0.00 | 51 | 1010.2 |
| 20260504013006 | 42 | 42 | 3.5 | 3.5 | 0.00 | 0.00 | 0.00 | 52 | 1010.2 |
| 20260504012505 | 42 | 42 | 3.5 | 3.5 | 0.00 | 0.00 | 0.00 | 52 | 1010.2 |
| 20260504012006 | 42 | 44 | 3.5 | 4.3 | 0.00 | 0.00 | 0.00 | 54 | 1010.2 |
| 20260504011506 | 42 | 54 | 3.5 | 3.5 | 0.00 | 0.00 | 0.00 | 53 | 1010.2 |
| 20260504011006 | 42 | 55 | 2.6 | 3.5 | 0.00 | 0.00 | 0.00 | 49 | 1009.8 |
| 20260504010506 | 44 | 42 | 2.6 | 2.6 | 0.00 | 0.00 | 0.00 | 48 | 1009.8 |
| 20260504010006 | 44 | 42 | 2.6 | 2.6 | 0.00 | 0.00 | 0.00 | 48 | 1009.8 |
| 20260504005506 | 44 | 42 | 2.6 | 2.6 | 0.00 | 0.00 | 0.00 | 48 | 1009.8 |
| 20260504005005 | 44 | 48 | 3.5 | 3.5 | 0.00 | 0.00 | 0.00 | 47 | 1009.5 |
| 20260504004505 | 44 | 39 | 3.5 | 3.5 | 0.00 | 0.00 | 0.00 | 48 | 1009.5 |
| 20260504004006 | 44 | 40 | 3.5 | 3.5 | 0.00 | 0.00 | 0.00 | 49 | 1009.5 |
| 20260504003505 | 44 | 35 | 2.6 | 3.5 | 0.00 | 0.00 | 0.00 | 49 | 1009.5 |
| 20260504003005 | 44 | 42 | 2.6 | 2.6 | 0.00 | 0.00 | 0.00 | 46 | 1009.5 |
| 20260504002505 | 44 | 48 | 3.5 | 3.5 | 0.00 | 0.00 | 0.00 | 46 | 1009.1 |
| 20260504002005 | 47 | 57 | 2.6 | 2.6 | 0.00 | 0.00 | 0.00 | 41 | 1009.5 |
| 20260504001506 | 47 | 57 | 2.6 | 2.6 | 0.00 | 0.00 | 0.00 | 41 | 1009.1 |
| 20260504001005 | 47 | 57 | 2.6 | 2.6 | 0.00 | 0.00 | 0.00 | 41 | 1009.1 |
| 20260504000107 | 47 | 77 | 1.7 | 1.7 | 0.00 | 0.00 | 0.00 | 42 | 1008.8 |
| 20260503235505 | 48 | 88 | 1.7 | 2.6 | 0.00 | 0.00 | 0.00 | 39 | 1008.8 |
| 20260503235006 | 48 | 6 | 1.7 | 2.6 | 0.00 | 0.00 | 0.00 | 36 | 1008.5 |
| 20260503234505 | 48 | 47 | 1.7 | 2.6 | 0.00 | 0.00 | 0.00 | 36 | 1008.5 |
| 20260503234006 | 48 | 36 | 1.7 | 2.6 | 0.00 | 0.00 | 0.00 | 37 | 1008.5 |
| 20260503233505 | 48 | 32 | 1.7 | 3.5 | 0.00 | 0.00 | 0.00 | 36 | 1008.1 |
| 20260503233005 | 48 | 33 | 2.6 | 2.6 | 0.00 | 0.00 | 0.00 | 36 | 1008.5 |
| 20260503232505 | 49 | 48 | 2.6 | 2.6 | 0.00 | 0.00 | 0.00 | 36 | 1008.1 |
| 20260503232005 | 49 | 40 | 2.6 | 2.6 | 0.00 | 0.00 | 0.00 | 35 | 1008.5 |
| 20260503231506 | 49 | 32 | 2.6 | 3.5 | 0.00 | 0.00 | 0.00 | 35 | 1008.1 |
| 20260503231009 | 49 | 31 | 3.5 | 3.5 | 0.00 | 0.00 | 0.00 | 35 | 1008.1 |
| 20260503230506 | 49 | 67 | 2.6 | 2.6 | 0.00 | 0.00 | 0.00 | 35 | 1008.1 |
| 20260503230006 | 49 | 30 | 2.6 | 3.5 | 0.00 | 0.00 | 0.00 | 36 | 1008.1 |
| 20260503225505 | 49 | 46 | 3.5 | 3.5 | 0.00 | 0.00 | 0.00 | 35 | 1008.1 |
| 20260503225005 | 50 | 20 | 2.6 | 3.5 | 0.00 | 0.00 | 0.00 | 36 | 1008.1 |
| 20260503224505 | 50 | 55 | 3.5 | 3.5 | 0.00 | 0.00 | 0.00 | 35 | 1008.1 |
| 20260503224005 | 50 | 82 | 0.9 | 4.3 | 0.00 | 0.00 | 0.00 | 36 | 1008.1 |
| 20260503223505 | 51 | 135 | 1.7 | 5.2 | 0.00 | 0.00 | 0.00 | 33 | 1008.1 |
| 20260503223006 | 51 | 84 | 4.3 | 4.3 | 0.00 | 0.00 | 0.00 | 31 | 1008.1 |
| 20260503222505 | 51 | 120 | 2.6 | 5.2 | 0.00 | 0.00 | 0.00 | 33 | 1008.1 |
| 20260503222005 | 52 | 61 | 3.5 | 4.3 | 0.00 | 0.00 | 0.00 | 33 | 1008.1 |
| 20260503221506 | 52 | 97 | 2.6 | 4.3 | 0.00 | 0.00 | 0.00 | 31 | 1008.1 |
| 20260503221005 | 52 | 84 | 2.6 | 4.3 | 0.00 | 0.00 | 0.00 | 32 | 1008.1 |
| 20260503220506 | 52 | 92 | 2.6 | 4.3 | 0.00 | 0.00 | 0.00 | 33 | 1008.1 |
| 20260503220005 | 52 | 104 | 2.6 | 3.5 | 0.00 | 0.00 | 0.00 | 32 | 1008.1 |
| 20260503215505 | 53 | 253 | 2.6 | 7.0 | 0.00 | 0.00 | 0.00 | 30 | 1008.1 |
| 20260503215005 | 53 | 127 | 2.6 | 6.1 | 0.00 | 0.00 | 0.00 | 31 | 1008.1 |
| 20260503214506 | 53 | 78 | 2.6 | 4.3 | 0.00 | 0.00 | 0.00 | 33 | 1008.5 |
| 20260503214006 | 53 | 97 | 5.2 | 5.2 | 0.00 | 0.00 | 0.00 | 32 | 1008.5 |
| 20260503213507 | 52 | 94 | 2.6 | 3.5 | 0.00 | 0.00 | 0.00 | 33 | 1008.5 |
| 20260503213006 | 52 | 80 | 4.3 | 5.2 | 0.00 | 0.00 | 0.00 | 32 | 1008.5 |
| 20260503212506 | 51 | 108 | 4.3 | 4.3 | 0.00 | 0.00 | 0.00 | 34 | 1008.5 |
| 20260503212006 | 50 | 67 | 3.5 | 3.5 | 0.00 | 0.00 | 0.00 | 33 | 1008.5 |
| 20260503211505 | 50 | 292 | 0.9 | 2.6 | 0.00 | 0.00 | 0.00 | 34 | 1008.5 |
| 20260503211005 | 51 | 86 | 3.5 | 5.2 | 0.00 | 0.00 | 0.00 | 34 | 1008.5 |
| 20260503210505 | 51 | 55 | 2.6 | 4.3 | 0.00 | 0.00 | 0.00 | 33 | 1008.8 |
| 20260503210006 | 50 | 214 | 4.3 | 4.3 | 0.00 | 0.00 | 0.00 | 34 | 1008.5 |
| 20260503205505 | 51 | 134 | 5.2 | 5.2 | 0.00 | 0.00 | 0.00 | 35 | 1008.5 |
| 20260503205005 | 51 | 176 | 2.6 | 4.3 | 0.00 | 0.00 | 0.00 | 34 | 1008.5 |
| 20260503204505 | 51 | 135 | 4.3 | 4.3 | 0.00 | 0.00 | 0.00 | 33 | 1008.8 |
| 20260503204006 | 50 | 87 | 3.5 | 4.3 | 0.00 | 0.00 | 0.00 | 36 | 1008.5 |
| 20260503203506 | 50 | 102 | 2.6 | 7.8 | 0.00 | 0.00 | 0.00 | 35 | 1008.8 |
| 20260503203005 | 50 | 221 | 2.6 | 3.5 | 0.00 | 0.00 | 0.00 | 36 | 1008.8 |
| 20260503202505 | 50 | 101 | 4.3 | 5.2 | 0.00 | 0.00 | 0.00 | 36 | 1008.5 |
| 20260503202005 | 50 | 142 | 4.3 | 7.0 | 0.00 | 0.00 | 0.00 | 35 | 1008.8 |
| 20260503201506 | 50 | 129 | 3.5 | 4.3 | 0.00 | 0.00 | 0.00 | 37 | 1008.8 |
| 20260503201006 | 50 | 158 | 2.6 | 3.5 | 0.00 | 0.00 | 0.00 | 36 | 1009.1 |
| 20260503200506 | 49 | 83 | 4.3 | 4.3 | 0.00 | 0.00 | 0.00 | 38 | 1009.1 |
| 20260503200005 | 48 | 72 | 2.6 | 4.3 | 0.00 | 0.00 | 0.00 | 38 | 1009.1 |
| 20260503195506 | 49 | 153 | 4.3 | 5.2 | 0.00 | 0.00 | 0.00 | 37 | 1009.1 |
| 20260503195005 | 49 | 56 | 3.5 | 5.2 | 0.00 | 0.00 | 0.00 | 39 | 1009.1 |
| 20260503194506 | 48 | 45 | 2.6 | 5.2 | 0.00 | 0.00 | 0.00 | 37 | 1009.1 |
| 20260503194005 | 49 | 11 | 1.7 | 7.0 | 0.00 | 0.00 | 0.00 | 37 | 1009.5 |
| 20260503193505 | 49 | 337 | 0.9 | 4.3 | 0.00 | 0.00 | 0.00 | 38 | 1009.8 |
| 20260503193005 | 49 | 138 | 0.9 | 9.6 | 0.00 | 0.00 | 0.00 | 38 | 1009.5 |
| 20260503192505 | 49 | 130 | 4.3 | 6.1 | 0.00 | 0.00 | 0.00 | 38 | 1009.5 |
| 20260503192006 | 49 | 152 | 2.6 | 7.0 | 0.00 | 0.00 | 0.00 | 37 | 1009.5 |
| 20260503191505 | 50 | 246 | 1.7 | 7.8 | 0.00 | 0.00 | 0.00 | 35 | 1009.5 |
| 20260503191006 | 49 | 310 | 2.6 | 6.1 | 0.00 | 0.00 | 0.00 | 37 | 1009.5 |
| 20260503190505 | 48 | 210 | 4.3 | 7.8 | 0.00 | 0.00 | 0.00 | 37 | 1009.8 |
| 20260503190005 | 48 | 136 | 6.1 | 7.0 | 0.00 | 0.00 | 0.00 | 38 | 1009.8 |
| 20260503185505 | 48 | 67 | 1.7 | 8.7 | 0.00 | 0.00 | 0.00 | 37 | 1009.8 |
| 20260503185005 | 49 | 114 | 4.3 | 7.0 | 0.00 | 0.00 | 0.00 | 36 | 1009.8 |
| 20260503184506 | 47 | 93 | 2.6 | 5.2 | 0.00 | 0.00 | 0.00 | 39 | 1009.8 |
| 20260503184005 | 48 | 67 | 4.3 | 5.2 | 0.00 | 0.00 | 0.00 | 39 | 1009.8 |
| 20260503183506 | 47 | 144 | 0.9 | 3.5 | 0.00 | 0.00 | 0.00 | 38 | 1009.8 |
| 20260503183006 | 48 | 129 | 3.5 | 4.3 | 0.00 | 0.00 | 0.00 | 38 | 1009.8 |
| 20260503182506 | 48 | 102 | 5.2 | 8.7 | 0.00 | 0.00 | 0.00 | 37 | 1009.8 |
| 20260503182006 | 48 | 189 | 1.7 | 7.8 | 0.00 | 0.00 | 0.00 | 38 | 1009.8 |
| 20260503181505 | 48 | 55 | 5.2 | 5.2 | 0.00 | 0.00 | 0.00 | 38 | 1010.2 |
| 20260503181006 | 48 | 260 | 2.6 | 7.8 | 0.00 | 0.00 | 0.00 | 38 | 1009.8 |
| 20260503180505 | 48 | 106 | 2.6 | 4.3 | 0.00 | 0.00 | 0.00 | 38 | 1009.8 |
| 20260503180005 | 48 | 77 | 2.6 | 6.1 | 0.00 | 0.00 | 0.00 | 37 | 1009.8 |
| 20260503175505 | 48 | 67 | 6.1 | 7.0 | 0.00 | 0.00 | 0.00 | 39 | 1009.8 |
| 20260503175005 | 48 | 135 | 2.6 | 5.2 | 0.00 | 0.00 | 0.00 | 40 | 1009.8 |
| 20260503174505 | 47 | 75 | 6.1 | 7.0 | 0.00 | 0.00 | 0.00 | 41 | 1009.8 |
| 20260503174006 | 47 | 102 | 3.5 | 5.2 | 0.00 | 0.00 | 0.00 | 38 | 1009.8 |
| 20260503173506 | 47 | 92 | 2.6 | 6.1 | 0.00 | 0.00 | 0.00 | 37 | 1009.8 |
| 20260503173006 | 48 | 126 | 4.3 | 6.1 | 0.00 | 0.00 | 0.00 | 40 | 1009.8 |
| 20260503172505 | 48 | 85 | 3.5 | 6.1 | 0.00 | 0.00 | 0.00 | 38 | 1009.8 |
| 20260503172005 | 47 | 304 | 1.7 | 7.8 | 0.00 | 0.00 | 0.00 | 39 | 1009.8 |
| 20260503171506 | 47 | 96 | 6.1 | 6.1 | 0.00 | 0.00 | 0.00 | 39 | 1009.8 |
| 20260503171005 | 47 | 94 | 6.1 | 7.8 | 0.00 | 0.00 | 0.00 | 41 | 1009.8 |
| 20260503170506 | 47 | 121 | 7.0 | 7.8 | 0.00 | 0.00 | 0.00 | 40 | 1010.2 |
| 20260503151005 | 46 | 60 | 5.2 | 6.1 | 0.00 | 0.00 | 0.00 | 46 | 1010.5 |
| 20260503150505 | 47 | 54 | 6.1 | 10.4 | 0.00 | 0.00 | 0.00 | 45 | 1010.5 |